Van, Turkey

1:19 AM +03 on July 26, 2017 (GMT +0300)
Van

Weather History for LTCI - December, 2013

Change the Weather History Date:

Monday, December 2, 2013

  Actual Average Record
Temperature  
Mean Temperature 38 °F -  
Max Temperature 47 °F 39 °F 53 °F (2010)
Min Temperature 29 °F 24 °F 14 °F (2004)
Degree Days  
Heating Degree Days 27    
Moisture  
Dew Point 33 °F    
Average Humidity 74    
Maximum Humidity 93    
Minimum Humidity 53    
Precipitation  
Precipitation 0.00 in 0.04 in - ()
Sea Level Pressure  
Sea Level Pressure 30.18 in    
Wind  
Wind Speed 3 mph ()    
Max Wind Speed 9 mph    
Max Gust Speed -    
Visibility 4.6 miles    
Events Rain    
Averages and records for this station are not official NWS values.
T = Trace of Precipitation, MM = Missing Value Source: Averaged Metar Reports

Daily Weather History Graph

Daily Weather History Graph

Search for Another Location

Airport or City:

Trip Planner

Search our weather history database for the weather conditions in past years. The results will help you decide how hot, cold, wet, or windy it might be!

Date:

Astronomy

Dec. 02, 2013 Rise Set
Actual Time 6:05 AM EET 3:46 PM EET
Civil Twilight 5:36 AM EET 4:15 PM EET
Nautical Twilight 5:03 AM EET 4:48 PM EET
Astronomical Twilight 4:31 AM EET 5:20 PM EET
Moon 5:07 AM EET (12/2) 3:28 PM EET (12/2)
Length of Visible Light 10h 38m
Length of Day
9h 40m
Waning Crescent, 1% of the Moon is Illuminated
Dec 2
Waning Crescent
Dec 3
New
Dec 9
First Quarter
Dec 17
Full
Dec 25
Last Quarter

Hourly Weather History & Observations

Time (EET) Temp. Windchill Dew Point Humidity Pressure Visibility Wind Dir Wind Speed Gust Speed Precip Events Conditions
12:50 AM 33.8 °F 29.6 °F 30.2 °F 87% 30.30 in 4.3 mi NE 4.6 mph - N/A   Scattered Clouds
1:50 AM 33.8 °F - 30.2 °F 87% 30.30 in 5.0 mi SSE 1.2 mph - N/A   Scattered Clouds
2:00 AM 34 °F - 31 °F 84%  in 5 mi SSE 1.2 mph - -   Mist
2:50 AM 33.8 °F 29.6 °F 30.2 °F 87% 30.30 in 6.2 mi ESE 4.6 mph - N/A   Scattered Clouds
3:50 AM 32.0 °F - 30.2 °F 93% 30.27 in 6.2 mi ESE 2.3 mph - N/A   Scattered Clouds
4:50 AM 33.8 °F - 32.0 °F 93% 30.27 in 6.2 mi East 2.3 mph - N/A   Scattered Clouds
5:00 AM 34 °F - 32 °F 88%  in 6 mi East 2.3 mph - -   Partly Cloudy
5:50 AM 33.8 °F 30.8 °F 32.0 °F 93% 30.30 in 6.2 mi ESE 3.5 mph - N/A   Scattered Clouds
6:50 AM 33.8 °F 29.6 °F 32.0 °F 93% 30.27 in 6.2 mi NNE 4.6 mph - N/A   Scattered Clouds
7:50 AM 39.2 °F 37.0 °F 33.8 °F 81% 30.27 in 4.3 mi NE 3.5 mph - N/A   Mostly Cloudy
8:00 AM 39 °F - 34 °F 74%  in 4 mi NE 3.5 mph - -   Mist
8:50 AM 41.0 °F 38.0 °F 33.8 °F 76% 30.27 in 5.0 mi ESE 4.6 mph - N/A   Mostly Cloudy
9:50 AM 42.8 °F 41.1 °F 33.8 °F 70% 30.24 in 5.0 mi West 3.5 mph - N/A   Mostly Cloudy
10:50 AM 46.4 °F 45.2 °F 35.6 °F 66% 30.21 in 5.0 mi NNW 3.5 mph - N/A   Mostly Cloudy
11:00 AM 45 °F - 35 °F 57%  in 5 mi NNW 4.6 mph - -   Haze
11:50 AM 46.4 °F 45.2 °F 35.6 °F 66% 30.18 in 3.7 mi West 3.5 mph - N/A   Mostly Cloudy
12:50 PM 46.4 °F 45.2 °F 35.6 °F 66% 30.15 in 3.7 mi SW 3.5 mph - N/A   Mostly Cloudy
1:50 PM 46.4 °F 41.9 °F 35.6 °F 66% 30.15 in 3.7 mi WNW 9.2 mph - N/A   Mostly Cloudy
2:00 PM 46 °F - 35 °F 55%  in 4 mi WNW 9.2 mph - -   Haze
2:50 PM 46.4 °F - 33.8 °F 62% 30.15 in 3.7 mi Variable 1.2 mph - N/A   Mostly Cloudy
3:50 PM 44.6 °F - 35.6 °F 71% 30.12 in 3.7 mi SE 2.3 mph - N/A   Mostly Cloudy
4:50 PM 41.0 °F 38.0 °F 35.6 °F 81% 30.12 in 6.2 mi SE 4.6 mph - N/A   Mostly Cloudy
5:00 PM 42 °F - 36 °F 73%  in 4 mi SE 4.6 mph - -   Mist
5:50 PM 39.2 °F - 33.8 °F 81% 30.12 in 2.5 mi Calm Calm - N/A   Mostly Cloudy
6:50 PM 39.2 °F - 33.8 °F 81% 30.12 in 2.5 mi East 2.3 mph - N/A   Mostly Cloudy
7:50 PM 39.2 °F 37.0 °F 33.8 °F 81% 30.09 in 3.1 mi SSE 3.5 mph - N/A   Mostly Cloudy
8:00 PM 39 °F - 33 °F 73%  in 3 mi SSE 3.5 mph - -   Mist
8:50 PM 39.2 °F 35.9 °F 32.0 °F 75% 30.09 in 4.3 mi SSE 4.6 mph - N/A   Mostly Cloudy
9:50 PM 42.8 °F 41.1 °F 26.6 °F 53% 30.06 in 4.3 mi SE 3.5 mph - N/A   Mostly Cloudy
10:26 PM 42.8 °F 41.1 °F 28.4 °F 57% 30.06 in 4.3 mi ESE 3.5 mph - N/A Rain Light Rain
10:50 PM 42.8 °F 41.1 °F 32.0 °F 66% 30.06 in 5.0 mi NE 3.5 mph - N/A Rain Light Rain
11:00 PM 42 °F - 32 °F 58%  in 5 mi NE 3.5 mph - - Rain Light Rain
11:11 PM 42.8 °F 41.1 °F 33.8 °F 70% 30.06 in 4.3 mi Variable 3.5 mph - N/A   Mostly Cloudy
11:50 PM 44.6 °F - 33.8 °F 66% 30.04 in 4.3 mi Variable 2.3 mph - N/A   Mostly Cloudy